Location: Unspecified
(48.2082°N, 0.0000°E)
Time: 00:15:21
(UTC+00:00)

Vanguard 1 - Pass Details

Date: 03 July 2019
Orbit: 653 x 3830 km, 34.3° (Epoch: 20 July)

Event Time Altitude Azimuth Distance (km) Brightness Sun altitude
Rises 04:51:15 0° 275° (W) 7,557 14.1 5.7°
Reaches altitude 10° 04:57:39 10° 267° (W) 6,132 13.6 6.6°
Maximum altitude 05:11:41 31° 215° (SW) 3,438 12.5 8.7°
Drops below altitude 10° 05:20:33 10° 158° (SSE) 3,820 13.1 10.1°
Sets 05:23:30 0° 147° (SSE) 4,441 13.6 10.5°
